TimeMDT,TemperatureF,Dew PointF,Humidity,Sea Level PressureIn,VisibilityMPH,Wind Direction,Wind SpeedMPH,Gust SpeedMPH,PrecipitationIn,Events,Conditions,WindDirDegrees,DateUTC
12:15 AM,51.8,39.2,62,30.05,10.0,South,6.9,-,N/A,,Clear,190,2012-11-02 06:15:00
12:35 AM,50.0,39.2,66,30.05,10.0,South,6.9,-,N/A,,Clear,180,2012-11-02 06:35:00
12:55 AM,50.0,39.2,66,30.05,10.0,South,6.9,-,N/A,,Clear,190,2012-11-02 06:55:00
1:15 AM,50.0,39.2,66,30.04,10.0,South,6.9,-,N/A,,Clear,180,2012-11-02 07:15:00
1:35 AM,50.0,41.0,71,30.04,10.0,South,6.9,-,N/A,,Clear,180,2012-11-02 07:35:00
1:55 AM,50.0,41.0,71,30.03,10.0,South,6.9,-,N/A,,Clear,180,2012-11-02 07:55:00
2:15 AM,50.0,42.8,76,30.03,10.0,South,6.9,-,N/A,,Clear,180,2012-11-02 08:15:00
2:35 AM,50.0,44.6,82,30.03,10.0,South,6.9,-,N/A,,Clear,180,2012-11-02 08:35:00
2:55 AM,50.0,44.6,82,30.03,10.0,South,6.9,-,N/A,,Clear,180,2012-11-02 08:55:00
3:15 AM,50.0,44.6,82,30.02,10.0,South,6.9,-,N/A,,Clear,180,2012-11-02 09:15:00
3:35 AM,48.2,46.4,93,30.02,10.0,South,6.9,-,N/A,,Clear,170,2012-11-02 09:35:00
3:55 AM,48.2,46.4,93,30.01,10.0,South,5.8,-,N/A,,Clear,190,2012-11-02 09:55:00
4:15 AM,50.0,48.2,94,30.01,8.0,South,6.9,-,N/A,,Clear,180,2012-11-02 10:15:00
4:35 AM,50.0,48.2,94,30.01,6.0,SSW,5.8,-,N/A,,Clear,200,2012-11-02 10:35:00
4:55 AM,48.2,48.2,100,30.01,5.0,SW,6.9,-,N/A,,Clear,220,2012-11-02 10:55:00
5:50 AM,46.4,46.4,100,30.02,6.0,SW,5.8,-,N/A,,Clear,220,2012-11-02 11:50:00
6:27 AM,48.2,48.2,100,30.02,0.8,South,5.8,-,N/A,,Clear,190,2012-11-02 12:27:00
6:50 AM,44.6,44.6,100,30.02,0.2,Calm,Calm,-,N/A,Fog,Fog,0,2012-11-02 12:50:00
7:50 AM,46.4,46.4,100,30.04,0.1,West,6.9,-,N/A,Fog,Fog,260,2012-11-02 13:50:00
8:36 AM,53.6,53.6,100,30.05,1.0,South,4.6,-,N/A,,Mostly Cloudy,190,2012-11-02 14:36:00
8:50 AM,53.6,53.6,100,30.05,2.0,SSW,4.6,-,N/A,,Scattered Clouds,200,2012-11-02 14:50:00
9:03 AM,55.4,55.4,100,30.05,7.0,South,6.9,-,N/A,,Clear,190,2012-11-02 15:03:00
9:50 AM,62.6,50.0,63,30.05,10.0,SSW,6.9,-,N/A,,Clear,210,2012-11-02 15:50:00
10:50 AM,71.6,42.8,35,30.05,10.0,SSW,6.9,-,N/A,,Clear,210,2012-11-02 16:50:00
11:50 AM,78.8,24.8,14,30.03,10.0,WSW,11.5,-,N/A,,Clear,240,2012-11-02 17:50:00
12:50 PM,82.4,23.0,11,30.01,10.0,West,11.5,16.1,N/A,,Clear,260,2012-11-02 18:50:00
1:50 PM,82.4,19.4,10,29.98,10.0,West,10.4,18.4,N/A,,Clear,270,2012-11-02 19:50:00
2:50 PM,82.4,17.6,9,29.96,10.0,WNW,10.4,17.3,N/A,,Clear,300,2012-11-02 20:50:00
3:50 PM,80.6,17.6,10,29.95,10.0,SW,5.8,-,N/A,,Clear,220,2012-11-02 21:50:00
4:50 PM,80.6,17.6,10,29.95,10.0,WSW,8.1,-,N/A,,Clear,240,2012-11-02 22:50:00
5:45 PM,73.4,19.4,13,29.96,10.0,West,3.5,-,N/A,,Clear,260,2012-11-02 23:45:00
6:15 PM,69.8,19.4,15,29.97,7.0,WNW,5.8,-,N/A,,Clear,300,2012-11-03 00:15:00
6:35 PM,68.0,17.6,15,29.97,10.0,WNW,4.6,-,N/A,,Clear,290,2012-11-03 00:35:00
6:55 PM,64.4,19.4,18,29.98,10.0,WNW,5.8,-,N/A,,Clear,300,2012-11-03 00:55:00
7:15 PM,62.6,19.4,19,29.98,10.0,NW,4.6,-,N/A,,Clear,320,2012-11-03 01:15:00
7:35 PM,59.0,19.4,22,29.99,10.0,NW,5.8,-,N/A,,Clear,320,2012-11-03 01:35:00
7:55 PM,59.0,19.4,22,29.99,10.0,NW,5.8,-,N/A,,Clear,310,2012-11-03 01:55:00
8:35 PM,57.2,19.4,23,29.99,10.0,Calm,Calm,-,N/A,,Clear,0,2012-11-03 02:35:00
8:55 PM,57.2,17.6,21,30.00,10.0,Calm,Calm,-,N/A,,Clear,0,2012-11-03 02:55:00
9:15 PM,57.2,17.6,21,30.01,10.0,NW,4.6,-,N/A,,Clear,310,2012-11-03 03:15:00
9:35 PM,57.2,17.6,21,30.01,10.0,NW,4.6,-,N/A,,Clear,320,2012-11-03 03:35:00
9:55 PM,57.2,17.6,21,30.01,10.0,Calm,Calm,-,N/A,,Clear,0,2012-11-03 03:55:00
10:15 PM,53.6,19.4,26,30.01,10.0,Calm,Calm,-,N/A,,Clear,0,2012-11-03 04:15:00
10:35 PM,53.6,17.6,24,30.01,10.0,NE,3.5,-,N/A,,Clear,40,2012-11-03 04:35:00
10:55 PM,57.2,19.4,23,30.02,10.0,East,3.5,-,N/A,,Clear,90,2012-11-03 04:55:00
11:15 PM,53.6,21.2,28,30.02,10.0,Calm,Calm,-,N/A,,Clear,0,2012-11-03 05:15:00
11:35 PM,59.0,28.4,31,30.02,10.0,South,3.5,-,N/A,,Clear,170,2012-11-03 05:35:00
11:55 PM,60.8,33.8,36,30.02,10.0,SSE,5.8,-,N/A,,Clear,160,2012-11-03 05:55:00